Retour au catalogue

BREEZE-M R/B

ActifMEO
NORAD 44458·ROCKET BODY·🇷🇺 Russia

Lancé Aug 5, 2019 depuis Baikonur Cosmodrome

Loading…

Prochains Passages (prochaines 24 heures)

TLE

FraisSource: Space-Track

Époque: Sep 14, 2026, 09:58 UTC

1 44458U 19048B   26257.41560881 -.00000184  00000-0  00000-0 0  9996
2 44458   7.1383  71.8289 0743724 132.5788 234.1997  0.90283589 23368

Suivez BREEZE-M R/B en temps réel avec AllMySat

Download on the App Store